Location: The Saddle
(36.8333°N, 80.3417°W)
Time: 22:17:16
(UTC-04:00)

AO-73 - Visible Passes

Search period start: 20 May 2024 00:00
Search period end: 30 May 2024 00:00
Orbit: 560 x 625 km, 97.7° (Epoch: 20 May)

Date Brightness Start Highest point End Pass type
(mag) Time Alt. Az. Time Alt. Az. Time Alt. Az.
20 May ? 04:04:41 10° NNE 04:08:43 42° E 04:10:52 23° SSE visible
20 May ? 05:41:37 10° NNW 05:43:51 14° WNW 05:46:05 10° W visible
21 May ? 04:13:21 10° NNE 04:17:30 55° E 04:19:45 24° S visible
22 May ? 04:22:03 10° NNE 04:26:15 71° ESE 04:28:38 24° S visible
23 May ? 04:30:45 10° NNE 04:34:58 89° W 04:37:29 23° SSW visible
24 May ? 04:39:29 10° N 04:43:40 69° WNW 04:46:17 21° SSW visible
25 May ? 03:16:19 10° E 03:16:25 10° E 03:16:31 10° E visible
25 May ? 04:48:14 10° N 04:52:18 53° WNW 04:55:06 19° SW visible
26 May ? 03:23:14 10° ENE 03:25:10 13° E 03:27:04 10° ESE visible
26 May ? 04:57:00 10° N 05:00:56 41° WNW 05:03:52 16° SW visible
27 May ? 03:31:14 10° NE 03:33:53 16° E 03:36:02 12° SE visible
27 May ? 05:05:48 10° N 05:09:31 33° WNW 05:12:37 13° SW visible
28 May ? 03:39:26 10° NE 03:42:34 21° E 03:44:46 14° SE visible
28 May ? 05:14:37 10° NNW 05:18:05 26° WNW 05:21:21 11° SW visible
29 May ? 03:47:45 10° NE 03:51:13 26° E 03:53:29 16° SE visible
29 May ? 05:23:29 10° NNW 05:26:36 21° WNW 05:29:41 10° WSW visible
